Location: Newark
(44.6303°N, 123.0961°W)
Time: 00:33:53
(UTC+00:00)

Envisat - Pass Details

Date: 25 January 2020
Orbit: 764 x 766 km, 98.1° (Epoch: 24 February)

Event Time Altitude Azimuth Distance (km) Brightness Sun altitude
Rises 02:25:19 0° 180° (S) 3,219 6.4 -13.4°
Reaches altitude 10° 02:27:40 10° 186° (S) 2,297 5.7 -13.9°
Maximum altitude 02:32:35 49° 261° (W) 981 4.0 -14.7°
Drops below altitude 10° 02:37:31 10° 336° (NNW) 2,313 5.6 -15.6°
Sets 02:39:55 0° 342° (NNW) 3,244 6.3 -16.0°
